Location: Marcé
(47.5801°N, 0.3280°W)
Time: 09:03:03
(UTC+01:00)

BlueWalker 3 - Pass Details

Date: 06 December 2022
Orbit: 499 x 517 km, 53.2° (Epoch: 29 January)

Event Time Altitude Azimuth Distance (km) Brightness Sun altitude
Rises 18:57:44 0° 296° (WNW) 2,632 6.4 -17.3°
Reaches altitude 10° 18:59:59 10° 301° (WNW) 1,740 5.3 -17.7°
Maximum altitude 19:03:51 54° 20° (NNE) 628 2.1 -18.3°
Enters shadow 19:04:30 47° 57° (ENE) 684 2.1 -18.4°
